| time (UTC) | temp F | wind direction | speed MPH | gust MPH | rain 1hr in | rain 24hr in | rain mn in | humidity % | barometer mb |
| 20260509193052 | 50 | 338 | 7.0 | 20.0 | 0.00 | 0.00 | 0.00 | 41 | 1005.0 |
| 20260509191546 | 50 | 332 | 9.0 | 21.0 | 0.00 | 0.00 | 0.00 | 43 | 1004.7 |
| 20260509190049 | 49 | 360 | 11.0 | 22.0 | 0.00 | 0.00 | 0.00 | 45 | 1004.6 |
| 20260509184555 | 49 | 309 | 6.0 | 19.0 | 0.00 | 0.00 | 0.00 | 45 | 1004.4 |
| 20260509183047 | 50 | 314 | 10.0 | 26.0 | 0.00 | 0.00 | 0.00 | 44 | 1004.2 |
| 20260509181549 | 49 | 304 | 9.0 | 25.0 | 0.00 | 0.00 | 0.00 | 44 | 1004.0 |
| 20260509180052 | 49 | 327 | 9.0 | 18.0 | 0.00 | 0.00 | 0.00 | 43 | 1003.9 |
| 20260509174545 | 48 | 330 | 8.0 | 19.0 | 0.00 | 0.00 | 0.00 | 46 | 1003.8 |
| 20260509173044 | 49 | 337 | 11.0 | 23.0 | 0.00 | 0.00 | 0.00 | 43 | 1003.5 |
| 20260509171549 | 49 | 304 | 13.0 | 23.0 | 0.00 | 0.00 | 0.00 | 47 | 1003.1 |
| 20260509170059 | 50 | 305 | 13.0 | 20.0 | 0.00 | 0.00 | 0.00 | 44 | 1003.0 |
| 20260509164549 | 50 | 296 | 15.0 | 24.0 | 0.00 | 0.00 | 0.00 | 47 | 1002.7 |
| 20260509163056 | 50 | 25 | 15.0 | 23.0 | 0.00 | 0.00 | 0.00 | 43 | 1002.5 |
| 20260509161554 | 50 | 321 | 13.0 | 35.0 | 0.00 | 0.00 | 0.00 | 43 | 1002.2 |
| 20260509160040 | 51 | 299 | 15.0 | 27.0 | 0.00 | 0.00 | 0.00 | 45 | 1001.8 |
| 20260509154548 | 50 | 304 | 8.0 | 20.0 | 0.00 | 0.00 | 0.00 | 40 | 1001.6 |
| 20260509153046 | 49 | 311 | 11.0 | 25.0 | 0.00 | 0.00 | 0.00 | 40 | 1001.4 |
| 20260509151547 | 49 | 344 | 7.0 | 15.0 | 0.00 | 0.00 | 0.00 | 42 | 1001.2 |
| 20260509150050 | 47 | 319 | 7.0 | 14.0 | 0.00 | 0.00 | 0.00 | 45 | 1001.1 |
| 20260509144553 | 45 | 300 | 3.0 | 13.0 | 0.00 | 0.00 | 0.00 | 47 | 1000.8 |
| 20260509143054 | 44 | 300 | 7.0 | 17.0 | 0.00 | 0.00 | 0.00 | 47 | 1000.7 |
| 20260509141546 | 44 | 321 | 7.0 | 16.0 | 0.00 | 0.00 | 0.00 | 47 | 1000.5 |
| 20260509140044 | 45 | 306 | 8.0 | 15.0 | 0.00 | 0.00 | 0.00 | 48 | 1000.4 |
| 20260509134542 | 45 | 278 | 6.0 | 15.0 | 0.00 | 0.00 | 0.00 | 46 | 1000.3 |
| 20260509133100 | 45 | 323 | 5.0 | 13.0 | 0.00 | 0.00 | 0.00 | 47 | 1000.0 |
| 20260509131545 | 45 | 291 | 7.0 | 13.0 | 0.00 | 0.00 | 0.00 | 48 | 999.9 |
| 20260509130052 | 44 | 301 | 5.0 | 12.0 | 0.00 | 0.00 | 0.00 | 48 | 999.9 |
| 20260509124550 | 44 | 296 | 4.0 | 12.0 | 0.00 | 0.00 | 0.00 | 50 | 999.8 |
| 20260509123044 | 43 | 304 | 3.0 | 13.0 | 0.00 | 0.00 | 0.00 | 50 | 999.7 |
| 20260509121551 | 44 | 323 | 5.0 | 11.0 | 0.00 | 0.00 | 0.00 | 51 | 999.6 |
| 20260509120049 | 44 | 301 | 5.0 | 10.0 | 0.00 | 0.00 | 0.00 | 53 | 999.6 |
| 20260509114557 | 44 | 312 | 3.0 | 10.0 | 0.00 | 0.00 | 0.00 | 53 | 999.4 |
| 20260509113045 | 43 | 0 | 2.0 | 8.0 | 0.00 | 0.00 | 0.00 | 56 | 999.2 |
| 20260509111546 | 43 | 301 | 4.0 | 9.0 | 0.00 | 0.00 | 0.00 | 57 | 999.1 |
| 20260509110049 | 42 | 329 | 3.0 | 10.0 | 0.00 | 0.00 | 0.00 | 59 | 998.7 |
| 20260509104547 | 42 | 309 | 4.0 | 8.0 | 0.00 | 0.00 | 0.00 | 65 | 998.7 |
| 20260509103046 | 41 | 307 | 0.0 | 3.0 | 0.00 | 0.00 | 0.00 | 63 | 998.1 |
| 20260509101545 | 42 | 0 | 0.0 | 3.0 | 0.00 | 0.00 | 0.00 | 62 | 998.1 |
| 20260509100046 | 42 | 0 | 0.0 | 3.0 | 0.00 | 0.00 | 0.00 | 59 | 998.3 |
| 20260509094550 | 43 | 0 | 0.0 | 4.0 | 0.00 | 0.00 | 0.00 | 58 | 998.3 |
| 20260509093046 | 43 | 313 | 2.0 | 5.0 | 0.00 | 0.00 | 0.00 | 57 | 998.4 |
| 20260509091551 | 44 | 311 | 0.0 | 4.0 | 0.00 | 0.00 | 0.00 | 55 | 998.4 |
| 20260509090100 | 45 | 313 | 3.0 | 7.0 | 0.00 | 0.00 | 0.00 | 55 | 998.6 |
| 20260509084546 | 45 | 334 | 1.0 | 10.0 | 0.00 | 0.00 | 0.00 | 57 | 998.3 |
| 20260509083051 | 45 | 300 | 0.0 | 4.0 | 0.00 | 0.00 | 0.00 | 57 | 998.3 |
| 20260509081546 | 46 | 0 | 1.0 | 4.0 | 0.00 | 0.00 | 0.00 | 54 | 998.0 |
| 20260509080103 | 47 | 306 | 1.0 | 4.0 | 0.00 | 0.00 | 0.00 | 50 | 998.1 |
| 20260509074550 | 48 | 0 | 0.0 | 7.0 | 0.00 | 0.00 | 0.00 | 48 | 998.1 |
| 20260509073102 | 48 | 329 | 3.0 | 10.0 | 0.00 | 0.00 | 0.00 | 47 | 998.2 |
| 20260509071546 | 48 | 316 | 4.0 | 12.0 | 0.00 | 0.00 | 0.00 | 49 | 998.2 |
| 20260509070050 | 48 | 355 | 7.0 | 12.0 | 0.00 | 0.00 | 0.00 | 49 | 998.4 |
| 20260509064545 | 48 | 311 | 5.0 | 15.0 | 0.00 | 0.00 | 0.00 | 49 | 998.0 |
| 20260509063050 | 48 | 325 | 3.0 | 10.0 | 0.00 | 0.00 | 0.00 | 53 | 997.8 |
| 20260509061542 | 47 | 310 | 7.0 | 13.0 | 0.00 | 0.00 | 0.00 | 60 | 998.0 |
| 20260509060052 | 46 | 272 | 3.0 | 6.0 | 0.00 | 0.00 | 0.00 | 67 | 997.9 |
| 20260509054545 | 46 | 267 | 2.0 | 7.0 | 0.00 | 0.00 | 0.00 | 67 | 997.9 |
| 20260509053047 | 45 | 269 | 3.0 | 8.0 | 0.00 | 0.00 | 0.00 | 69 | 997.7 |
| 20260509051552 | 45 | 0 | 0.0 | 0.0 | 0.00 | 0.00 | 0.00 | 67 | 997.9 |
| 20260509050100 | 45 | 0 | 0.0 | 0.0 | 0.00 | 0.00 | 0.00 | 64 | 997.9 |
| 20260509044547 | 46 | 0 | 0.0 | 2.0 | 0.00 | 0.00 | 0.00 | 65 | 997.9 |
| 20260509043048 | 46 | 121 | 0.0 | 3.0 | 0.00 | 0.00 | 0.00 | 59 | 997.9 |
| 20260509041549 | 47 | 0 | 0.0 | 3.0 | 0.00 | 0.00 | 0.00 | 59 | 998.0 |
| 20260509040049 | 48 | 62 | 0.0 | 3.0 | 0.00 | 0.00 | 0.00 | 60 | 998.2 |
| 20260509034543 | 48 | 0 | 0.0 | 3.0 | 0.00 | 0.00 | 0.00 | 59 | 998.5 |
| 20260509033111 | 48 | 0 | 0.0 | 4.0 | 0.00 | 0.00 | 0.00 | 59 | 998.7 |
| 20260509031548 | 48 | 0 | 0.0 | 3.0 | 0.00 | 0.00 | 0.00 | 58 | 998.9 |
| 20260509030047 | 49 | 0 | 0.0 | 0.0 | 0.00 | 0.00 | 0.00 | 57 | 999.0 |
| 20260509024558 | 49 | 0 | 0.0 | 0.0 | 0.00 | 0.00 | 0.00 | 58 | 999.2 |
| 20260509023045 | 50 | 0 | 0.0 | 0.0 | 0.00 | 0.00 | 0.00 | 55 | 999.3 |
| 20260509021543 | 51 | 0 | 0.0 | 0.0 | 0.00 | 0.00 | 0.00 | 46 | 999.4 |
| 20260509020048 | 52 | 0 | 0.0 | 0.0 | 0.00 | 0.00 | 0.00 | 49 | 999.4 |
| 20260509014545 | 54 | 0 | 0.0 | 4.0 | 0.00 | 0.00 | 0.00 | 49 | 999.4 |
| 20260509013049 | 54 | 263 | 2.0 | 9.0 | 0.00 | 0.00 | 0.00 | 54 | 999.4 |
| 20260509011556 | 55 | 259 | 2.0 | 4.0 | 0.00 | 0.00 | 0.00 | 48 | 999.5 |
| 20260509010047 | 56 | 248 | 4.0 | 11.0 | 0.00 | 0.00 | 0.00 | 45 | 999.6 |
| 20260509004555 | 56 | 276 | 4.0 | 11.0 | 0.00 | 0.00 | 0.00 | 39 | 999.6 |
| 20260509003046 | 56 | 259 | 7.0 | 11.0 | 0.00 | 0.00 | 0.00 | 39 | 999.5 |
| 20260509001544 | 56 | 316 | 7.0 | 11.0 | 0.00 | 0.00 | 0.00 | 41 | 999.7 |
| 20260509000046 | 57 | 222 | 5.0 | 8.0 | 0.00 | 0.00 | 0.00 | 42 | 999.6 |
| 20260508234546 | 57 | 232 | 5.0 | 13.0 | 0.00 | 0.00 | 0.00 | 44 | 999.9 |
| 20260508233044 | 57 | 285 | 7.0 | 12.0 | 0.00 | 0.00 | 0.00 | 43 | 999.8 |
| 20260508231552 | 57 | 245 | 8.0 | 15.0 | 0.00 | 0.00 | 0.00 | 41 | 1000.1 |
| 20260508230045 | 57 | 196 | 6.0 | 13.0 | 0.00 | 0.00 | 0.00 | 39 | 1000.2 |
| 20260508224601 | 58 | 196 | 5.0 | 11.0 | 0.00 | 0.00 | 0.00 | 36 | 1000.3 |
| 20260508223047 | 58 | 202 | 6.0 | 11.0 | 0.00 | 0.00 | 0.00 | 40 | 1000.4 |
| 20260508221555 | 58 | 268 | 7.0 | 11.0 | 0.00 | 0.00 | 0.00 | 43 | 1000.6 |
| 20260508220046 | 58 | 234 | 4.0 | 8.0 | 0.00 | 0.00 | 0.00 | 43 | 1000.8 |
| 20260508214547 | 59 | 247 | 5.0 | 15.0 | 0.00 | 0.00 | 0.00 | 39 | 1000.8 |
| 20260508213040 | 58 | 279 | 2.0 | 7.0 | 0.00 | 0.00 | 0.00 | 35 | 1000.7 |
| 20260508211549 | 58 | 272 | 4.0 | 13.0 | 0.00 | 0.00 | 0.00 | 36 | 1000.8 |
| 20260508210046 | 58 | 296 | 7.0 | 12.0 | 0.00 | 0.00 | 0.00 | 43 | 1000.9 |
| 20260508204553 | 59 | 288 | 6.0 | 12.0 | 0.00 | 0.00 | 0.00 | 36 | 1001.1 |
| 20260508203059 | 60 | 236 | 5.0 | 13.0 | 0.00 | 0.00 | 0.00 | 43 | 1001.4 |
| 20260508201543 | 60 | 234 | 1.0 | 9.0 | 0.00 | 0.00 | 0.00 | 32 | 1001.5 |
| 20260508200058 | 60 | 234 | 7.0 | 14.0 | 0.00 | 0.00 | 0.00 | 37 | 1001.7 |
| 20260508194545 | 58 | 259 | 4.0 | 13.0 | 0.00 | 0.00 | 0.00 | 35 | 1002.1 |